Regional Weather Roundup
Issued by NWS State College, PA

Home | Current Version | Previous Version | Text Only | Print | Product List | Glossary On
Versions: 1 2 3 4 5 6 7 8 9 10 11 12 13 14 15 16 17 18 19 20 21 22 23 24 25 26 27 28 29 30 31 32 33 34 35 36 37 38 39 40 41 42 43 44 45 46 47 48 49 50
000
ASUS41 KCTP 071303
RWRCTP

REGIONAL WEATHER ROUNDUP
NATIONAL WEATHER SERVICE STATE COLLEGE PA
800 AM EST WED DEC 07 2016

Note: "fair" indicates few or no clouds below 12,000 feet with no
significant weather and/or obstructions to visibility.

* = STATION THAT DOES NOT REPORT PRECIPITATION /E.G. RAIN...SNOW...ETC/
    THUNDER OR FOG.

PAZ002>004-007>009-013>016-020>023-029>032-071400-
WESTERN PENNSYLVANIA

CITY           SKY/WX    TMP DP  RH WIND       PRES   REMARKS
ERIE           CLOUDY    37  28  70 SW14      29.98R
MEADVILLE      MOCLDY    32  25  75 SW8       29.99R
FRANKLIN*        N/A     32  25  74 W8        30.00S
NEW CASTLE     FAIR      32  28  85 SW8       30.05R
BEAVER COUNTY  CLEAR     32  28  86 W8        30.04R
BUTLER*        PTCLDY    34  25  69 W8        30.05S
PITTSBURGH INT MOCLDY    35  30  82 W7        30.04R
PITTSBURGH     CLOUDY    34  28  79 W9        30.03S
INDIANA*       CLOUDY    36  32  87 W7        30.04R
LATROBE        PTCLDY    32  32 100 SW12      30.04R
WASHINGTON CO* CLEAR     32  27  80 W9        30.07R
$$

PAZ004>006-010>012-017>019-024>028-033>037-041-042-045-046-049>053-071400-
CENTRAL PENNSYLVANIA

CITY           SKY/WX    TMP DP  RH WIND       PRES   REMARKS
BRADFORD       CLOUDY    33  30  88 W6        29.92R
DUBOIS         PTCLDY    32  28  85 W7        29.96R FOG
CLEARFIELD     PTCLDY    34  31  88 W9        29.97R
JOHNSTOWN      CLOUDY    33  28  81 W17G23    29.96R
ALTOONA        CLOUDY    37  32  82 W8        30.00R
STATE COLLEGE  CLOUDY    37  32  81 W9        29.98R
WILLIAMSPORT   CLOUDY    41  35  79 CALM      29.98R HAZE
SELINSGROVE    CLOUDY    37  37 100 CALM      29.99S FOG
FT INDIANTOWN  FOG       38  38 100 E2        29.98S VSB 1
CAPITAL CITY   CLOUDY    40  37  89 CALM      29.99S FOG
HARRISBURG     CLOUDY    39  39 100 NW6       29.99S
YORK           FOG       36  36 100 CALM      29.99R VSB 1
$$

PAZ038>040-043-044-047-048-054-055-060>062-067>071-071400-
EASTERN PENNSYLVANIA

CITY           SKY/WX    TMP DP  RH WIND       PRES   REMARKS
SCRANTON       CLOUDY    36  35  96 W3        29.96R FOG
MOUNT POCONO   CLOUDY    32  31  96 W5        29.92R FOG
ALLENTOWN      CLOUDY    38  36  92 W5        30.00R FOG
QUAKERTOWN*    CLOUDY    37  37 100 CALM      30.00R
READING        CLOUDY    38  36  92 CALM      29.99R FOG
LANCASTER      CLOUDY    39  39 100 CALM      30.00R FOG
COATESVILLE    CLOUDY    37  37 100 N5        29.99R FOG
POTTSTOWN      CLOUDY    37  37 100 NW3       30.01R FOG
BLUE BELL      CLOUDY    36  36 100 NW3       29.98R
DOYLESTOWN       N/A     39  37  92 NW3       29.98R FOG
WILLOW GROVE   NOT AVBL
NORTH PHILA    CLOUDY    41  39  93 NW7       29.99R FOG
PHILADELPHIA   CLOUDY    41  37  87 NW8G18    30.00R FOG
$$




USA.gov is the U.S. government's official web portal to all federal, state and local government web resources and services.